Regional Weather Roundup
Issued by NWS

Home | Current Version | Previous Version | Graphics & Text | Print | Product List | Glossary On
Versions: 1 2 3 4 5 6 7 8 9 10 11 12 13 14 15 16 17 18 19 20 21 22 23 24 25 26 27 28 29 30 31 32 33 34 35 36 37 38 39 40 41 42 43 44 45 46 47 48 49 50
000
ASUS45 KBOU 221407
RWRCO

WEATHER ROUNDUP FOR COLORADO
NATIONAL WEATHER SERVICE DENVER/BOULDER CO
700 AM MST SAT NOV 22 2014

NOTE: "FAIR" INDICATES FEW OR NO CLOUDS BELOW 12000 FEET WITH NO
SIGNIFICANT WEATHER AND/OR OBSTRUCTIONS TO VISIBILITY.

COZ001>005-013-030-031-221500-
...NORTHWEST COLORADO...

CITY           SKY/WX    TMP DP  RH WIND       PRES   REMARKS
CRAIG          CLOUDY    22  17  81 E5        30.01R WCI  16
HAYDEN         MOCLDY    21  16  79 E10       30.01R WCI  10
MEEKER         MOCLDY    36  19  50 S3        30.01R
MOUNT WERNER   NOT AVBL
STEAMBOAT SPGS PTCLDY    15  12  90 E6        30.02R WCI   6
WALDEN         MOCLDY    32  18  55 S18G26    29.93F WCI  20
$$

COZ006>008-011-221500-
...WEST CENTRAL VALLEYS...

CITY           SKY/WX    TMP DP  RH WIND       PRES   REMARKS
GRAND JUNCTION PTCLDY    22  15  75 E3        30.08R
MONTROSE       CLEAR     22  17  81 S7        30.11S WCI  13
EAGLE          PTCLDY    16  14  93 CALM      30.10S
RIFLE          CLEAR     19  15  84 SW5       30.11R WCI  12
DELTA          CLEAR     21  15  80 CALM      30.11S
NUCLA          CLEAR     28  21  74 SE3       30.13S
$$

COZ017>023-064>068-221500-
...SOUTHWEST COLORADO...

CITY           SKY/WX    TMP DP  RH WIND       PRES   REMARKS
DURANGO        CLEAR     19  15  84 CALM      30.11R
CORTEZ         CLEAR     17  14  88 NE6       30.12S WCI   9
PAGOSA SPRINGS CLEAR     22  17  82 CALM      30.12R
TELLURIDE      NOT AVBL
WOLF CREEK PAS CLEAR     18  14  86 SW21      30.12S WCI   1
$$

COZ009-010-012-014-032>034-037-058>063-221500-
...CENTRAL COLORADO...

CITY           SKY/WX    TMP DP  RH WIND       PRES   REMARKS
ASPEN          PTCLDY    19  10  68 SW6       30.06F WCI  11
BUENA VISTA    PTCLDY    26  13  58 W13       30.00F WCI  15
COPPER MTN     NOT AVBL
BERTHOUD PASS  FAIR      14  10  85 MISG      29.97F
COTTONWOOD PAS PTCLDY    32  10  40 W20G35    30.01F WCI  20
GUNNISON       CLEAR      3  -4  72 CALM      30.18F
KREMMLING      MOCLDY    14  10  85 CALM      30.06F
LEADVILLE      CLEAR     23   6  48 N15       30.03F WCI  10
MONARCH PASS   PTCLDY    14  12  92 W45       30.13F WCI -10
SALIDA         PTCLDY    36  15  41 SW13G18   30.09R
SUNLIGHT       CLEAR     23  18  80 CALM      30.08F
WILKERSON PASS PTCLDY    19   9  63 SW17G31   29.98F WCI   4
$$

COZ069>075-221500-
...SAN LUIS VALLEY/SANGRE DE CRISTO MOUNTAINS...

CITY           SKY/WX    TMP DP  RH WIND       PRES   REMARKS
ALAMOSA        PTCLDY     6   2  83 SW5       30.09F WCI  -3
LA VETA PASS   PTCLDY    23  16  74 MISG      29.99F
SAGUACHE       PTCLDY    19  12  73 N3        30.10S
$$

COZ035-036-038>040-221500-
...NORTHERN COLORADO FRONT RANGE...

CITY           SKY/WX    TMP DP  RH WIND       PRES   REMARKS
DENVER INTL AP PTCLDY    41  16  36 SW15      29.78F
DMNS CITY PARK   N/A     41  11  30 W10       29.79S
AURORA         PTCLDY    40  15  35 S16       29.81F
FRONT RANGE AP PTCLDY    43  18  36 SW21G28   29.80S
ERIE MUNI ARPT MOCLDY    30  18  61 CALM      29.77S
BOULDER MUN AP MOCLDY    37  16  41 S6        29.75F
CENTENNIAL     PTCLDY    43  12  28 SW18      29.81F
BROOMFIELD     PTCLDY    48  12  23 W28G35    29.79S
FORT COLLINS   MOCLDY    27  21  80 SE8       29.77F WCI  18
LONGMONT       MOCLDY    36  20  51 NW5       29.77F
$$

COZ041-046-047-076>085-087-088-221500-
...PIKES PEAK/PALMER DIVIDE AND SOUTHERN FOOTHILLS...

CITY           SKY/WX    TMP DP  RH WIND       PRES   REMARKS
COLO. SPRINGS  PTCLDY    27  16  63 NE10      29.87F WCI  17
A. F. ACADEMY  PTCLDY    30  12  47 E3        29.86F
ELLICOTT       PTCLDY    34  16  47 SW13      29.85F WCI  25
FALCON         NOT AVBL
FORT CARSON    PTCLDY    27  16  62 N7        29.84F WCI  20
LIMON          CLEAR     34  16  47 CALM      29.84F
MONUMENT HILL  PTCLDY    37   9  30 SW12      29.85F
TRINIDAD       CLEAR     27  16  63 W14       29.94F WCI  16
$$

COZ042>045-048>051-090-091-221500-
...NORTHEAST COLORADO...

CITY           SKY/WX    TMP DP  RH WIND       PRES   REMARKS
GREELEY ARPT   MOCLDY    18   9  68 CALM      29.78F
AKRON          PTCLDY    43  20  39 SW18G25   29.77F
BURLINGTON     CLEAR     35  21  56 SW12      29.84F WCI  27
WRAY           PTCLDY    32  20  62 W10       29.80F WCI  24
STERLING       PTCLDY    21  18  86 W6        29.78F WCI  14
HOLYOKE        PTCLDY    28  19  69 SW7       29.77F WCI  21
FORT MORGAN    PTCLDY    27  18  71 W7        29.79S WCI  19
$$

COZ086-089-092>099-221500-
...SOUTHEAST COLORADO...

CITY           SKY/WX    TMP DP  RH WIND       PRES   REMARKS
PUEBLO         PTCLDY    24  21  88 E3        29.88F
LA JUNTA       CLEAR     30  24  78 SW6       29.89F WCI  24
LAMAR          CLEAR     24  22  91 W9        29.88F WCI  14
SPRINGFIELD      N/A     33  24  69 W10       29.89F WCI  25
$$



USA.gov is the U.S. government's official web portal to all federal, state and local government web resources and services.